{"data":{"norad_id":65356,"intl_designator":"2025-190F","name":"STARLINK-34680","alt_names":[],"object_type":"PAYLOAD","status":"ACTIVE","operator":null,"country":"US","launch_date":"2025-08-28","launch_site_code":"AFETR","launch_vehicle":null,"mission":null,"orbit_class":"UNKNOWN","rcs_meters":null,"size_class":null,"mass_kg":null,"dimensions":null,"purposes":["comms"],"wikipedia_slug":null,"has_3d_model":false,"image_url":null,"decayed_at":null,"tle_current":{"epoch":"2026-05-25T01:29:14.980416Z","epoch_age_seconds":63536,"freshness":"FRESH","line1":"1 65356U 25190F   26145.06197894  .00009384  00000+0  32854-3 0  9992","line2":"2 65356  53.1589 173.7533 0001424  83.9892 276.1271 15.30203430 40974","mean_motion":15.3020343,"eccentricity":0.0001424,"inclination_deg":53.1589,"raan_deg":173.7533,"arg_perigee_deg":83.9892,"mean_anomaly_deg":276.1271,"bstar":0.00032854,"rev_number":4097,"period_min":94.105134766297,"perigee_km":474.2289122004,"apogee_km":476.18074395303,"semimajor_km":6853.3418280767,"source":"CELESTRAK","updated_at":"2026-05-25T13:38:20.765673Z"}}}